Location: McLaughlin
(0.0000°N, 0.0000°E)
Time: 09:39:21
(UTC+00:00)

Envisat - Pass Details

Date: 26 June 2019
Orbit: 764 x 766 km, 98.1° (Epoch: 18 July)

Event Time Altitude Azimuth Distance (km) Brightness Sun altitude
Rises 19:01:57 0° 175° (S) 3,232 6.0 -13.5°
Reaches altitude 10° 19:04:17 10° 179° (S) 2,303 5.2 -14.1°
Maximum altitude 19:09:16 60° 258° (WSW) 873 3.5 -15.2°
Drops below altitude 10° 19:14:15 10° 337° (NNW) 2,293 6.1 -16.3°
Sets 19:16:35 0° 341° (NNW) 3,217 6.9 -16.9°
